Time,TemperatureF,DewpointF,PressureIn,WindDirection,WindDirectionDegrees,WindSpeedMPH,WindSpeedGustMPH,Humidity,HourlyPrecipIn,Conditions,Clouds,dailyrainin,SolarRadiationWatts/m^2,SoftwareType,DateUTC
2013-04-02 00:00:00,32.9,16.7,29.97,NNW,330,0.0,0.0,51,0.00,FEW,,0.00,0.0,WeatherDisplay:10.37,2013-04-02 04:00:00,
2013-04-02 00:04:00,33.1,16.5,29.97,NNW,331,1.3,1.5,50,0.00,FEW,,0.00,0.0,WeatherDisplay:10.37,2013-04-02 04:04:00,
2013-04-02 00:09:00,33.7,17.0,29.97,NNW,331,0.0,0.0,50,0.00,FEW,,0.00,0.0,WeatherDisplay:10.37,2013-04-02 04:09:00,
2013-04-02 00:14:00,33.1,17.8,29.97,NNW,331,0.0,0.0,53,0.00,FEW,,0.00,0.0,WeatherDisplay:10.37,2013-04-02 04:14:00,
2013-04-02 00:19:00,32.2,17.4,29.97,NNW,331,0.0,0.0,54,0.00,FEW,,0.00,0.0,WeatherDisplay:10.37,2013-04-02 04:19:00,
2013-04-02 00:24:00,32.1,17.3,29.97,NNW,331,0.0,0.0,54,0.00,FEW,,0.00,0.0,WeatherDisplay:10.37,2013-04-02 04:24:00,
2013-04-02 00:29:00,31.5,17.6,29.97,NNW,331,0.0,0.0,56,0.00,FEW,,0.00,0.0,WeatherDisplay:10.37,2013-04-02 04:29:00,
2013-04-02 00:34:00,31.2,18.1,29.97,NNW,331,0.2,1.2,58,0.00,FEW,,0.00,0.0,WeatherDisplay:10.37,2013-04-02 04:34:00,
2013-04-02 00:39:00,31.2,18.9,29.97,NNW,331,0.1,1.5,60,0.00,FEW,,0.00,0.0,WeatherDisplay:10.37,2013-04-02 04:39:00,
2013-04-02 00:44:00,31.3,19.0,29.98,NNW,331,0.0,0.0,60,0.00,FEW,,0.00,0.0,WeatherDisplay:10.37,2013-04-02 04:44:00,
2013-04-02 00:49:00,31.3,19.0,29.98,NNW,331,0.0,0.0,60,0.00,FEW,,0.00,0.0,WeatherDisplay:10.37,2013-04-02 04:49:00,
2013-04-02 00:54:00,31.2,18.9,29.98,NNW,331,0.0,0.0,60,0.00,FEW,,0.00,0.0,WeatherDisplay:10.37,2013-04-02 04:54:00,
2013-04-02 00:59:00,31.0,18.7,29.98,NNW,331,0.0,0.0,60,0.00,FEW,,0.00,0.0,WeatherDisplay:10.37,2013-04-02 04:59:00,
2013-04-02 01:04:00,30.6,19.1,29.98,NNW,331,0.0,0.0,62,0.00,SCT,,0.00,0.0,WeatherDisplay:10.37,2013-04-02 05:04:00,
2013-04-02 01:09:00,30.7,18.8,29.98,NNW,331,0.0,0.0,61,0.00,SCT,,0.00,0.0,WeatherDisplay:10.37,2013-04-02 05:09:00,
2013-04-02 01:14:00,30.7,18.8,29.98,NNW,331,0.0,0.0,61,0.00,SCT,,0.00,0.0,WeatherDisplay:10.37,2013-04-02 05:14:00,
2013-04-02 01:19:00,30.7,18.8,29.98,NNW,331,0.0,0.0,61,0.00,SCT,,0.00,0.0,WeatherDisplay:10.37,2013-04-02 05:19:00,
2013-04-02 01:24:00,30.6,19.1,29.98,NNW,331,0.0,1.2,62,0.00,SCT,,0.00,0.0,WeatherDisplay:10.37,2013-04-02 05:24:00,
2013-04-02 01:29:00,30.4,18.9,29.98,NNW,331,0.0,0.0,62,0.00,SCT,,0.00,0.0,WeatherDisplay:10.37,2013-04-02 05:29:00,
2013-04-02 01:34:00,30.0,18.5,29.98,NNW,331,0.6,1.5,62,0.00,SCT,,0.00,0.0,WeatherDisplay:10.37,2013-04-02 05:34:00,
2013-04-02 01:39:00,29.5,18.4,29.98,NNW,331,0.0,0.0,63,0.00,SCT,,0.00,0.0,WeatherDisplay:10.37,2013-04-02 05:39:00,
2013-04-02 01:44:00,29.1,18.1,29.98,NNW,331,0.0,0.0,63,0.00,SCT,,0.00,0.0,WeatherDisplay:10.37,2013-04-02 05:44:00,
2013-04-02 01:49:00,29.0,18.0,29.98,NNW,331,0.0,0.0,63,0.00,SCT,,0.00,0.0,WeatherDisplay:10.37,2013-04-02 05:49:00,
2013-04-02 01:54:00,28.2,17.6,29.98,NNW,331,0.0,0.0,64,0.00,SCT,,0.00,0.0,WeatherDisplay:10.37,2013-04-02 05:54:00,
2013-04-02 01:59:00,28.1,17.8,29.98,NNW,331,0.1,1.5,65,0.00,SCT,,0.00,0.0,WeatherDisplay:10.37,2013-04-02 05:59:00,
2013-04-02 02:04:00,27.9,18.0,29.99,NNW,331,0.0,0.0,66,0.00,BKN,,0.00,0.0,WeatherDisplay:10.37,2013-04-02 06:04:00,
2013-04-02 02:09:00,27.9,18.0,29.98,NNW,331,0.0,0.0,66,0.00,BKN,,0.00,0.0,WeatherDisplay:10.37,2013-04-02 06:09:00,
2013-04-02 02:14:00,27.5,17.6,29.98,NNW,331,0.0,0.0,66,0.00,BKN,,0.00,0.0,WeatherDisplay:10.37,2013-04-02 06:14:00,
2013-04-02 02:19:00,27.5,18.0,29.98,NNW,331,0.0,0.0,67,0.00,BKN,,0.00,0.0,WeatherDisplay:10.37,2013-04-02 06:19:00,
2013-04-02 02:24:00,27.6,18.1,29.98,NNW,331,0.0,0.0,67,0.00,BKN,,0.00,0.0,WeatherDisplay:10.37,2013-04-02 06:24:00,
2013-04-02 02:29:00,27.5,18.3,29.98,NNW,331,0.0,0.0,68,0.00,BKN,,0.00,0.0,WeatherDisplay:10.37,2013-04-02 06:29:00,
2013-04-02 02:34:00,27.5,18.3,29.98,NNW,331,0.0,0.0,68,0.00,BKN,,0.00,0.0,WeatherDisplay:10.37,2013-04-02 06:34:00,
2013-04-02 02:39:00,27.6,18.4,29.98,NNW,331,0.0,0.0,68,0.00,BKN,,0.00,0.0,WeatherDisplay:10.37,2013-04-02 06:39:00,
2013-04-02 02:44:00,27.8,18.6,29.98,NNW,331,0.0,0.0,68,0.00,BKN,,0.00,0.0,WeatherDisplay:10.37,2013-04-02 06:44:00,
2013-04-02 02:49:00,27.6,18.4,29.98,NNW,331,0.0,0.0,68,0.00,BKN,,0.00,0.0,WeatherDisplay:10.37,2013-04-02 06:49:00,
2013-04-02 02:54:00,27.3,18.1,29.98,NNW,331,0.0,0.0,68,0.00,BKN,,0.00,0.0,WeatherDisplay:10.37,2013-04-02 06:54:00,
2013-04-02 02:59:00,27.3,18.5,29.98,NNW,331,0.0,0.0,69,0.00,BKN,,0.00,0.0,WeatherDisplay:10.37,2013-04-02 06:59:00,
2013-04-02 03:04:00,27.2,18.4,29.98,NNW,331,0.0,0.0,69,0.00,CLR,,0.00,0.0,WeatherDisplay:10.37,2013-04-02 07:04:00,
2013-04-02 03:09:00,27.2,18.4,29.97,NNW,331,0.0,0.0,69,0.00,CLR,,0.00,0.0,WeatherDisplay:10.37,2013-04-02 07:09:00,
2013-04-02 03:14:00,27.0,18.2,29.97,NNW,331,0.0,0.0,69,0.00,CLR,,0.00,0.0,WeatherDisplay:10.37,2013-04-02 07:14:00,
2013-04-02 03:19:00,26.9,18.1,29.98,NNW,331,0.0,0.0,69,0.00,CLR,,0.00,0.0,WeatherDisplay:10.37,2013-04-02 07:19:00,
2013-04-02 03:24:00,26.7,17.9,29.97,NNW,331,0.0,0.0,69,0.00,CLR,,0.00,0.0,WeatherDisplay:10.37,2013-04-02 07:24:00,
2013-04-02 03:29:00,26.6,17.8,29.98,NNW,331,0.0,0.0,69,0.00,CLR,,0.00,0.0,WeatherDisplay:10.37,2013-04-02 07:29:00,
2013-04-02 03:34:00,26.4,17.9,29.97,NNW,331,0.0,0.0,70,0.00,CLR,,0.00,0.0,WeatherDisplay:10.37,2013-04-02 07:34:00,
2013-04-02 03:39:00,26.4,17.9,29.97,NNW,331,0.0,0.0,70,0.00,CLR,,0.00,0.0,WeatherDisplay:10.37,2013-04-02 07:39:00,
2013-04-02 03:44:00,26.1,18.0,29.98,NNW,331,0.0,0.0,71,0.00,CLR,,0.00,0.0,WeatherDisplay:10.37,2013-04-02 07:44:00,
2013-04-02 03:49:00,26.0,17.9,29.98,NNW,331,0.0,0.0,71,0.00,CLR,,0.00,0.0,WeatherDisplay:10.37,2013-04-02 07:49:00,
2013-04-02 03:54:00,25.8,17.7,29.98,NNW,331,0.0,0.0,71,0.00,CLR,,0.00,0.0,WeatherDisplay:10.37,2013-04-02 07:54:00,
2013-04-02 03:59:00,25.8,18.0,29.98,NNW,331,0.0,0.0,72,0.00,CLR,,0.00,0.0,WeatherDisplay:10.37,2013-04-02 07:59:00,
2013-04-02 04:04:00,25.8,18.0,29.98,NNW,331,0.0,0.0,72,0.00,CLR,,0.00,0.0,WeatherDisplay:10.37,2013-04-02 08:04:00,
2013-04-02 04:09:00,25.6,18.1,29.98,NNW,331,0.0,0.0,73,0.00,CLR,,0.00,0.0,WeatherDisplay:10.37,2013-04-02 08:09:00,
2013-04-02 04:14:00,25.4,18.3,29.98,NNW,331,0.0,0.0,74,0.00,CLR,,0.00,0.0,WeatherDisplay:10.37,2013-04-02 08:14:00,
2013-04-02 04:19:00,25.4,18.6,29.98,NNW,331,0.0,0.0,75,0.00,CLR,,0.00,0.0,WeatherDisplay:10.37,2013-04-02 08:19:00,
2013-04-02 04:24:00,25.6,18.8,29.98,NNW,331,0.0,0.0,75,0.00,CLR,,0.00,0.0,WeatherDisplay:10.37,2013-04-02 08:24:00,
2013-04-02 04:29:00,25.8,19.3,29.99,NNW,331,0.0,0.0,76,0.00,CLR,,0.00,0.0,WeatherDisplay:10.37,2013-04-02 08:29:00,
2013-04-02 04:34:00,26.3,19.8,29.99,NNW,331,0.0,1.2,76,0.00,CLR,,0.00,0.0,WeatherDisplay:10.37,2013-04-02 08:34:00,
2013-04-02 04:39:00,26.6,19.4,29.99,NNW,331,0.0,0.0,74,0.00,CLR,,0.00,0.0,WeatherDisplay:10.37,2013-04-02 08:39:00,
2013-04-02 04:44:00,27.0,19.2,29.99,NNW,331,0.0,0.0,72,0.00,CLR,,0.00,0.0,WeatherDisplay:10.37,2013-04-02 08:44:00,
2013-04-02 04:49:00,27.5,19.0,29.99,NNW,331,0.0,0.0,70,0.00,CLR,,0.00,0.0,WeatherDisplay:10.37,2013-04-02 08:49:00,
2013-04-02 04:54:00,27.8,18.3,29.99,NNW,331,0.0,0.0,67,0.00,CLR,,0.00,0.0,WeatherDisplay:10.37,2013-04-02 08:54:00,
2013-04-02 04:59:00,28.4,17.8,29.99,NNW,331,0.0,0.0,64,0.00,CLR,,0.00,0.0,WeatherDisplay:10.37,2013-04-02 08:59:00,
2013-04-02 05:04:00,29.1,17.3,29.99,NNW,331,2.1,4.5,61,0.00,CLR,,0.00,0.0,WeatherDisplay:10.37,2013-04-02 09:04:00,
2013-04-02 05:09:00,30.1,17.1,30.00,NNW,331,0.0,1.2,58,0.00,CLR,,0.00,0.0,WeatherDisplay:10.37,2013-04-02 09:09:00,
2013-04-02 05:14:00,30.6,16.7,30.00,NW,320,1.1,3.5,56,0.00,CLR,,0.00,0.0,WeatherDisplay:10.37,2013-04-02 09:14:00,
2013-04-02 05:19:00,31.3,16.6,30.00,NW,319,2.7,3.5,54,0.00,CLR,,0.00,0.0,WeatherDisplay:10.37,2013-04-02 09:19:00,
2013-04-02 05:24:00,31.8,16.6,30.00,NW,319,0.0,0.0,53,0.00,CLR,,0.00,0.0,WeatherDisplay:10.37,2013-04-02 09:24:00,
2013-04-02 05:29:00,31.6,16.4,30.00,NW,318,0.0,0.0,53,0.00,CLR,,0.00,0.0,WeatherDisplay:10.37,2013-04-02 09:29:00,
2013-04-02 05:34:00,31.3,16.1,30.00,NW,318,0.0,0.0,53,0.00,CLR,,0.00,0.0,WeatherDisplay:10.37,2013-04-02 09:34:00,
2013-04-02 05:39:00,31.2,16.0,30.00,NW,317,0.0,0.0,53,0.00,CLR,,0.00,0.0,WeatherDisplay:10.37,2013-04-02 09:39:00,
2013-04-02 05:44:00,30.7,16.0,30.00,NW,317,0.1,1.5,54,0.00,CLR,,0.00,0.0,WeatherDisplay:10.37,2013-04-02 09:44:00,
2013-04-02 05:49:00,30.6,15.9,30.00,NW,317,0.0,0.0,54,0.00,CLR,,0.00,0.0,WeatherDisplay:10.37,2013-04-02 09:49:00,
2013-04-02 05:54:00,30.0,15.8,30.01,NW,317,0.0,0.0,55,0.00,CLR,,0.00,0.0,WeatherDisplay:10.37,2013-04-02 09:54:00,
2013-04-02 05:59:00,29.1,15.3,30.01,NW,317,0.0,0.0,56,0.00,CLR,,0.00,0.0,WeatherDisplay:10.37,2013-04-02 09:59:00,
2013-04-02 06:04:00,28.7,15.4,30.02,NW,317,0.0,0.0,57,0.00,CLR,,0.00,0.0,WeatherDisplay:10.37,2013-04-02 10:04:00,
2013-04-02 06:09:00,27.9,15.4,30.02,NW,317,0.0,0.0,59,0.00,CLR,,0.00,0.0,WeatherDisplay:10.37,2013-04-02 10:09:00,
2013-04-02 06:14:00,27.5,15.0,30.02,NW,317,0.0,0.0,59,0.00,CLR,,0.00,0.0,WeatherDisplay:10.37,2013-04-02 10:14:00,
2013-04-02 06:19:00,26.9,15.6,30.02,NW,317,0.0,0.0,62,0.00,CLR,,0.00,0.0,WeatherDisplay:10.37,2013-04-02 10:19:00,
2013-04-02 06:24:00,26.6,15.7,30.02,NW,317,0.0,0.0,63,0.00,CLR,,0.00,0.0,WeatherDisplay:10.37,2013-04-02 10:24:00,
2013-04-02 06:29:00,26.3,15.4,30.02,NW,317,0.0,0.0,63,0.00,CLR,,0.00,0.0,WeatherDisplay:10.37,2013-04-02 10:29:00,
2013-04-02 06:34:00,25.8,15.3,30.02,NW,317,0.0,0.0,64,0.00,CLR,,0.00,0.0,WeatherDisplay:10.37,2013-04-02 10:34:00,
2013-04-02 06:39:00,25.4,15.3,30.02,NW,317,0.0,0.0,65,0.00,CLR,,0.00,0.0,WeatherDisplay:10.37,2013-04-02 10:39:00,
2013-04-02 06:44:00,25.4,15.3,30.03,NW,317,0.0,0.0,65,0.00,CLR,,0.00,0.0,WeatherDisplay:10.37,2013-04-02 10:44:00,
2013-04-02 06:49:00,25.3,15.2,30.03,NW,317,0.0,0.0,65,0.00,CLR,,0.00,0.0,WeatherDisplay:10.37,2013-04-02 10:49:00,
2013-04-02 06:54:00,25.3,15.9,30.04,NW,317,0.0,0.0,67,0.00,CLR,,0.00,5.0,WeatherDisplay:10.37,2013-04-02 10:54:00,
2013-04-02 07:00:00,26.1,16.3,30.04,NW,317,0.0,0.0,66,0.00,CLR,,0.00,7.0,WeatherDisplay:10.37,2013-04-02 11:00:00,
2013-04-02 07:05:00,26.4,16.2,30.04,NW,317,0.0,0.0,65,0.00,CLR,,0.00,11.0,WeatherDisplay:10.37,2013-04-02 11:05:00,
2013-04-02 07:10:00,26.7,16.1,30.04,NW,317,0.0,0.0,64,0.00,CLR,,0.00,14.0,WeatherDisplay:10.37,2013-04-02 11:10:00,
2013-04-02 07:15:00,27.0,16.1,30.05,NW,317,0.2,1.5,63,0.00,CLR,,0.00,18.0,WeatherDisplay:10.37,2013-04-02 11:15:00,
2013-04-02 07:20:00,26.6,16.1,30.05,NW,317,0.0,0.0,64,0.00,CLR,,0.00,21.0,WeatherDisplay:10.37,2013-04-02 11:20:00,
2013-04-02 07:25:00,26.7,16.5,30.05,NW,317,0.0,0.0,65,0.00,CLR,,0.00,25.0,WeatherDisplay:10.37,2013-04-02 11:25:00,
2013-04-02 07:30:00,26.9,16.7,30.06,NW,317,0.0,0.0,65,0.00,CLR,,0.00,28.0,WeatherDisplay:10.37,2013-04-02 11:30:00,
2013-04-02 07:35:00,26.9,16.7,30.06,NW,317,0.0,0.0,65,0.00,CLR,,0.00,67.0,WeatherDisplay:10.37,2013-04-02 11:35:00,
2013-04-02 07:40:00,26.9,17.0,30.07,NW,317,0.0,0.0,66,0.00,CLR,,0.00,81.0,WeatherDisplay:10.37,2013-04-02 11:40:00,
2013-04-02 07:45:00,28.2,18.3,30.07,NW,317,0.0,0.0,66,0.00,CLR,,0.00,98.0,WeatherDisplay:10.37,2013-04-02 11:45:00,
2013-04-02 07:50:00,29.3,18.6,30.07,NW,317,0.0,0.0,64,0.00,CLR,,0.00,116.0,WeatherDisplay:10.37,2013-04-02 11:50:00,
2013-04-02 07:55:00,30.3,19.6,30.07,NW,317,0.0,0.0,64,0.00,CLR,,0.00,134.0,WeatherDisplay:10.37,2013-04-02 11:55:00,
2013-04-02 08:00:00,31.5,19.6,30.08,NW,317,0.0,0.0,61,0.00,CLR,,0.00,151.0,WeatherDisplay:10.37,2013-04-02 12:00:00,
2013-04-02 08:05:00,32.5,19.7,30.08,NW,317,0.0,0.0,59,0.00,CLR,,0.00,171.0,WeatherDisplay:10.37,2013-04-02 12:05:00,
2013-04-02 08:10:00,33.2,19.6,30.08,NW,317,0.0,0.0,57,0.00,CLR,,0.00,190.0,WeatherDisplay:10.37,2013-04-02 12:10:00,
2013-04-02 08:15:00,33.7,19.7,30.08,NW,317,0.0,0.0,56,0.00,CLR,,0.00,214.0,WeatherDisplay:10.37,2013-04-02 12:15:00,
2013-04-02 08:20:00,34.1,19.6,30.08,NW,317,0.1,1.2,55,0.00,CLR,,0.00,234.0,WeatherDisplay:10.37,2013-04-02 12:20:00,
2013-04-02 08:25:00,34.6,18.8,30.08,NW,317,2.7,4.5,52,0.00,CLR,,0.00,257.0,WeatherDisplay:10.37,2013-04-02 12:25:00,
2013-04-02 08:30:00,35.0,18.7,30.08,NW,315,4.5,5.8,51,0.00,CLR,,0.00,274.0,WeatherDisplay:10.37,2013-04-02 12:30:00,
2013-04-02 08:35:00,35.8,19.4,30.08,NW,306,4.7,4.7,51,0.00,CLR,,0.00,295.0,WeatherDisplay:10.37,2013-04-02 12:35:00,
2013-04-02 08:40:00,36.2,19.3,30.09,WNW,303,2.4,4.6,50,0.00,CLR,,0.00,315.0,WeatherDisplay:10.37,2013-04-02 12:40:00,
2013-04-02 08:45:00,36.5,18.6,30.08,West,270,7.8,10.4,48,0.00,CLR,,0.00,329.0,WeatherDisplay:10.37,2013-04-02 12:45:00,
2013-04-02 08:50:00,36.6,18.2,30.09,NNW,331,9.7,10.5,47,0.00,CLR,,0.00,346.0,WeatherDisplay:10.37,2013-04-02 12:50:00,
2013-04-02 08:55:00,36.9,18.5,30.09,NNW,341,7.8,8.1,47,0.00,CLR,,0.00,366.0,WeatherDisplay:10.37,2013-04-02 12:55:00,
2013-04-02 09:00:00,37.0,19.1,30.09,NNW,330,9.1,9.2,48,0.00,CLR,,0.00,394.0,WeatherDisplay:10.37,2013-04-02 13:00:00,
2013-04-02 09:05:00,37.3,18.4,30.09,WNW,296,10.4,13.5,46,0.00,FEW,,0.00,457.0,WeatherDisplay:10.37,2013-04-02 13:05:00,
2013-04-02 09:10:00,37.6,19.2,30.09,NW,306,10.6,16.1,47,0.00,FEW,,0.00,450.0,WeatherDisplay:10.37,2013-04-02 13:10:00,
2013-04-02 09:15:00,37.2,17.8,30.09,NNW,343,11.8,13.8,45,0.00,FEW,,0.00,116.0,WeatherDisplay:10.37,2013-04-02 13:15:00,
2013-04-02 09:20:00,36.9,19.0,30.09,NW,326,10.5,13.5,48,0.00,FEW,,0.00,534.0,WeatherDisplay:10.37,2013-04-02 13:20:00,
2013-04-02 09:25:00,37.8,19.3,30.09,North,355,6.2,9.0,47,0.00,FEW,,0.00,552.0,WeatherDisplay:10.37,2013-04-02 13:25:00,
2013-04-02 09:30:00,37.9,17.9,30.09,WNW,292,12.4,12.4,44,0.00,FEW,,0.00,199.0,WeatherDisplay:10.37,2013-04-02 13:30:00,
2013-04-02 09:35:00,37.2,16.7,30.09,WNW,292,9.8,9.8,43,0.00,FEW,,0.00,232.0,WeatherDisplay:10.37,2013-04-02 13:35:00,
2013-04-02 09:40:00,37.8,18.8,30.09,WNW,297,6.5,13.8,46,0.00,FEW,,0.00,671.0,WeatherDisplay:10.37,2013-04-02 13:40:00,
2013-04-02 09:45:00,38.0,18.0,30.09,WNW,295,15.1,15.1,44,0.00,FEW,,0.00,207.0,WeatherDisplay:10.37,2013-04-02 13:45:00,
2013-04-02 09:50:00,37.3,16.3,30.09,WNW,297,16.8,16.8,42,0.00,FEW,,0.00,218.0,WeatherDisplay:10.37,2013-04-02 13:50:00,
2013-04-02 09:55:00,37.2,16.7,30.10,NNW,333,11.2,15.0,43,0.00,FEW,,0.00,578.0,WeatherDisplay:10.37,2013-04-02 13:55:00,
2013-04-02 10:00:00,37.0,15.5,30.10,WNW,285,9.3,13.8,41,0.00,FEW,,0.00,617.0,WeatherDisplay:10.37,2013-04-02 14:00:00,
2013-04-02 10:05:00,37.8,17.8,30.09,NNW,342,12.5,12.5,44,0.00,FEW,,0.00,682.0,WeatherDisplay:10.37,2013-04-02 14:05:00,
2013-04-02 10:10:00,38.8,18.2,30.09,NW,317,10.0,10.5,43,0.00,FEW,,0.00,675.0,WeatherDisplay:10.37,2013-04-02 14:10:00,
2013-04-02 10:15:00,38.9,17.2,30.10,NW,304,8.2,9.2,41,0.00,FEW,,0.00,670.0,WeatherDisplay:10.37,2013-04-02 14:15:00,
2013-04-02 10:20:00,38.9,17.2,30.09,NNW,342,20.8,24.0,41,0.00,FEW,,0.00,670.0,WeatherDisplay:10.37,2013-04-02 14:20:00,
2013-04-02 10:25:00,38.6,16.3,30.10,WNW,303,5.8,8.1,40,0.00,FEW,,0.00,729.0,WeatherDisplay:10.37,2013-04-02 14:25:00,
2013-04-02 10:30:00,38.5,15.1,30.10,West,273,13.2,15.0,38,0.00,FEW,,0.00,714.0,WeatherDisplay:10.37,2013-04-02 14:30:00,
2013-04-02 10:35:00,38.5,15.1,30.10,NW,315,15.2,16.1,38,0.00,FEW,,0.00,696.0,WeatherDisplay:10.37,2013-04-02 14:35:00,
2013-04-02 10:40:00,38.9,16.6,30.10,West,279,14.6,14.6,40,0.00,FEW,,0.00,722.0,WeatherDisplay:10.37,2013-04-02 14:40:00,
2013-04-02 10:45:00,39.2,17.4,30.10,West,278,13.6,15.0,41,0.00,FEW,,0.00,828.0,WeatherDisplay:10.37,2013-04-02 14:45:00,
2013-04-02 10:50:00,38.9,15.4,30.10,NW,313,11.8,15.0,38,0.00,FEW,,0.00,253.0,WeatherDisplay:10.37,2013-04-02 14:50:00,
2013-04-02 10:55:00,39.2,17.4,30.10,NW,325,21.6,21.6,41,0.00,FEW,,0.00,766.0,WeatherDisplay:10.37,2013-04-02 14:55:00,
2013-04-02 11:00:00,39.5,16.0,30.10,WNW,300,13.8,18.4,38,0.00,FEW,,0.00,842.0,WeatherDisplay:10.37,2013-04-02 15:00:00,
2013-04-02 11:05:00,39.8,17.4,30.10,NNW,337,17.7,18.4,40,0.00,CLR,,0.00,824.0,WeatherDisplay:10.37,2013-04-02 15:05:00,
2013-04-02 11:10:00,40.5,17.5,30.10,NW,321,12.1,19.6,39,0.00,CLR,,0.00,828.0,WeatherDisplay:10.37,2013-04-02 15:10:00,
2013-04-02 11:15:00,40.6,20.4,30.10,NNW,342,10.6,15.0,44,0.00,CLR,,0.00,912.0,WeatherDisplay:10.37,2013-04-02 15:15:00,
2013-04-02 11:20:00,40.9,17.8,30.10,NW,309,13.6,13.8,39,0.00,CLR,,0.00,891.0,WeatherDisplay:10.37,2013-04-02 15:20:00,
2013-04-02 11:25:00,40.3,17.9,30.10,NNW,331,8.5,8.5,40,0.00,CLR,,0.00,995.0,WeatherDisplay:10.37,2013-04-02 15:25:00,
2013-04-02 11:30:00,40.8,18.9,30.10,WSW,242,9.3,13.5,41,0.00,CLR,,0.00,914.0,WeatherDisplay:10.37,2013-04-02 15:30:00,
2013-04-02 11:35:00,40.3,17.3,30.10,NW,318,12.6,16.5,39,0.00,CLR,,0.00,847.0,WeatherDisplay:10.37,2013-04-02 15:35:00,
2013-04-02 11:40:00,40.3,16.7,30.10,WNW,285,16.8,18.4,38,0.00,CLR,,0.00,891.0,WeatherDisplay:10.37,2013-04-02 15:40:00,
2013-04-02 11:45:00,40.8,17.1,30.10,NW,316,7.9,10.5,38,0.00,CLR,,0.00,921.0,WeatherDisplay:10.37,2013-04-02 15:45:00,
2013-04-02 11:50:00,40.9,15.3,30.09,West,266,21.2,21.2,35,0.00,CLR,,0.00,185.0,WeatherDisplay:10.37,2013-04-02 15:50:00,
2013-04-02 11:55:00,40.2,19.5,30.10,WNW,298,6.4,9.0,43,0.00,CLR,,0.00,875.0,WeatherDisplay:10.37,2013-04-02 15:55:00,
2013-04-02 12:00:00,41.1,17.4,30.10,West,269,21.1,24.2,38,0.00,CLR,,0.00,879.0,WeatherDisplay:10.37,2013-04-02 16:00:00,
2013-04-02 12:05:00,41.2,18.7,30.10,NW,306,21.7,22.5,40,0.00,FEW,,0.00,882.0,WeatherDisplay:10.37,2013-04-02 16:05:00,
2013-04-02 12:10:00,40.9,17.2,30.10,NW,324,11.0,15.0,38,0.00,FEW,,0.00,879.0,WeatherDisplay:10.37,2013-04-02 16:10:00,
2013-04-02 12:15:00,41.2,17.5,30.09,NW,305,19.0,23.0,38,0.00,FEW,,0.00,889.0,WeatherDisplay:10.37,2013-04-02 16:15:00,
2013-04-02 12:20:00,41.8,16.8,30.09,WNW,295,15.1,16.1,36,0.00,FEW,,0.00,960.0,WeatherDisplay:10.37,2013-04-02 16:20:00,
2013-04-02 12:26:00,41.6,17.8,30.09,West,277,20.8,20.8,38,0.00,FEW,,0.00,905.0,WeatherDisplay:10.37,2013-04-02 16:26:00,
2013-04-02 12:31:00,41.8,17.4,30.09,WNW,303,15.4,21.0,37,0.00,FEW,,0.00,896.0,WeatherDisplay:10.37,2013-04-02 16:31:00,
2013-04-02 12:36:00,42.1,17.7,30.09,NNW,329,22.3,22.3,37,0.00,FEW,,0.00,970.0,WeatherDisplay:10.37,2013-04-02 16:36:00,
2013-04-02 12:41:00,42.2,19.6,30.09,NW,323,23.5,23.5,40,0.00,FEW,,0.00,944.0,WeatherDisplay:10.37,2013-04-02 16:41:00,
2013-04-02 12:47:00,42.1,17.7,30.08,NNW,346,13.9,15.0,37,0.00,FEW,,0.00,919.0,WeatherDisplay:10.37,2013-04-02 16:47:00,
2013-04-02 12:52:00,42.3,17.8,30.08,West,265,11.7,18.0,37,0.00,FEW,,0.00,923.0,WeatherDisplay:10.37,2013-04-02 16:52:00,
2013-04-02 12:57:00,42.6,16.8,30.08,West,263,15.5,15.5,35,0.00,FEW,,0.00,932.0,WeatherDisplay:10.37,2013-04-02 16:57:00,
2013-04-02 13:02:00,42.8,15.6,30.08,West,273,10.7,16.1,33,0.00,FEW,,0.00,940.0,WeatherDisplay:10.37,2013-04-02 17:02:00,
2013-04-02 13:07:00,43.3,18.1,30.08,West,259,26.5,26.5,36,0.00,FEW,,0.00,907.0,WeatherDisplay:10.37,2013-04-02 17:07:00,
2013-04-02 13:12:00,43.2,16.7,30.08,WNW,294,9.8,11.5,34,0.00,FEW,,0.00,888.0,WeatherDisplay:10.37,2013-04-02 17:12:00,
2013-04-02 13:17:00,42.9,17.1,30.08,West,269,23.1,24.2,35,0.00,FEW,,0.00,896.0,WeatherDisplay:10.37,2013-04-02 17:17:00,
2013-04-02 13:22:00,42.9,14.3,30.08,NW,319,22.4,25.3,31,0.00,FEW,,0.00,902.0,WeatherDisplay:10.37,2013-04-02 17:22:00,
2013-04-02 13:27:00,43.1,15.2,30.08,WNW,303,22.6,27.0,32,0.00,FEW,,0.00,893.0,WeatherDisplay:10.37,2013-04-02 17:27:00,
2013-04-02 13:33:00,43.3,14.6,30.08,West,280,23.3,31.5,31,0.00,FEW,,0.00,886.0,WeatherDisplay:10.37,2013-04-02 17:33:00,
2013-04-02 13:38:00,43.3,16.1,30.07,NW,319,21.2,24.0,33,0.00,FEW,,0.00,905.0,WeatherDisplay:10.37,2013-04-02 17:38:00,
2013-04-02 13:43:00,43.1,14.5,30.07,NW,312,17.3,18.4,31,0.00,FEW,,0.00,896.0,WeatherDisplay:10.37,2013-04-02 17:43:00,
2013-04-02 13:49:00,43.8,14.3,30.07,NW,318,19.6,24.2,30,0.00,FEW,,0.00,919.0,WeatherDisplay:10.37,2013-04-02 17:49:00,
2013-04-02 13:54:00,43.3,13.9,30.07,NW,307,21.5,24.2,30,0.00,FEW,,0.00,877.0,WeatherDisplay:10.37,2013-04-02 17:54:00,
2013-04-02 13:59:00,43.3,14.6,30.07,NNW,332,19.1,23.0,31,0.00,FEW,,0.00,868.0,WeatherDisplay:10.37,2013-04-02 17:59:00,
2013-04-02 14:04:00,43.5,15.5,30.07,WNW,297,16.2,16.5,32,0.00,FEW,,0.00,865.0,WeatherDisplay:10.37,2013-04-02 18:04:00,
2013-04-02 14:09:00,44.1,13.0,30.07,West,273,22.2,23.0,28,0.00,FEW,,0.00,854.0,WeatherDisplay:10.37,2013-04-02 18:09:00,
2013-04-02 14:14:00,43.9,12.8,30.07,NW,306,20.2,24.2,28,0.00,FEW,,0.00,853.0,WeatherDisplay:10.37,2013-04-02 18:14:00,
2013-04-02 14:19:00,44.1,12.2,30.07,WSW,242,18.5,29.9,27,0.00,FEW,,0.00,844.0,WeatherDisplay:10.37,2013-04-02 18:19:00,
2013-04-02 14:24:00,44.2,15.4,30.06,West,266,19.5,24.0,31,0.00,FEW,,0.00,842.0,WeatherDisplay:10.37,2013-04-02 18:24:00,
2013-04-02 14:29:00,44.2,16.2,30.07,West,268,18.8,19.6,32,0.00,FEW,,0.00,835.0,WeatherDisplay:10.37,2013-04-02 18:29:00,
2013-04-02 14:34:00,44.1,13.8,30.07,NW,315,20.7,21.0,29,0.00,FEW,,0.00,826.0,WeatherDisplay:10.37,2013-04-02 18:34:00,
2013-04-02 14:39:00,44.2,13.1,30.06,WNW,289,24.8,25.3,28,0.00,FEW,,0.00,821.0,WeatherDisplay:10.37,2013-04-02 18:39:00,
2013-04-02 14:44:00,43.9,13.6,30.06,NW,317,18.2,23.0,29,0.00,FEW,,0.00,805.0,WeatherDisplay:10.37,2013-04-02 18:44:00,
2013-04-02 14:49:00,44.3,14.0,30.06,NW,318,22.5,28.8,29,0.00,FEW,,0.00,800.0,WeatherDisplay:10.37,2013-04-02 18:49:00,
2013-04-02 14:55:00,44.5,15.7,30.05,NNW,338,22.9,22.9,31,0.00,FEW,,0.00,789.0,WeatherDisplay:10.37,2013-04-02 18:55:00,
2013-04-02 15:00:00,44.8,16.7,30.05,NW,323,26.2,26.2,32,0.00,FEW,,0.00,780.0,WeatherDisplay:10.37,2013-04-02 19:00:00,
2013-04-02 15:05:00,44.8,16.0,30.05,NNW,340,15.3,16.5,31,0.00,FEW,,0.00,770.0,WeatherDisplay:10.37,2013-04-02 19:05:00,
2013-04-02 15:10:00,44.9,13.7,30.05,WNW,294,22.1,22.1,28,0.00,FEW,,0.00,763.0,WeatherDisplay:10.37,2013-04-02 19:10:00,
2013-04-02 15:15:00,45.2,15.6,30.05,WNW,297,16.8,19.6,30,0.00,FEW,,0.00,751.0,WeatherDisplay:10.37,2013-04-02 19:15:00,
2013-04-02 15:20:00,44.9,14.5,30.05,NNW,329,21.7,24.0,29,0.00,FEW,,0.00,744.0,WeatherDisplay:10.37,2013-04-02 19:20:00,
2013-04-02 15:25:00,45.1,14.7,30.05,NW,308,23.9,23.9,29,0.00,FEW,,0.00,728.0,WeatherDisplay:10.37,2013-04-02 19:25:00,
2013-04-02 15:30:00,44.9,13.7,30.05,NNW,335,25.6,25.6,28,0.00,FEW,,0.00,715.0,WeatherDisplay:10.37,2013-04-02 19:30:00,
2013-04-02 15:35:00,44.9,13.7,30.05,NW,306,19.6,19.6,28,0.00,FEW,,0.00,705.0,WeatherDisplay:10.37,2013-04-02 19:35:00,
2013-04-02 15:40:00,45.1,13.1,30.05,West,275,8.8,9.2,27,0.00,FEW,,0.00,693.0,WeatherDisplay:10.37,2013-04-02 19:40:00,
2013-04-02 15:45:00,45.5,14.2,30.05,NW,320,21.6,23.0,28,0.00,FEW,,0.00,682.0,WeatherDisplay:10.37,2013-04-02 19:45:00,
2013-04-02 15:50:00,45.1,12.2,30.05,NW,320,18.8,23.0,26,0.00,FEW,,0.00,668.0,WeatherDisplay:10.37,2013-04-02 19:50:00,
2013-04-02 15:55:00,45.1,13.1,30.05,WNW,289,18.9,20.7,27,0.00,FEW,,0.00,659.0,WeatherDisplay:10.37,2013-04-02 19:55:00,
2013-04-02 16:00:00,45.1,13.1,30.04,WNW,302,13.5,18.4,27,0.00,FEW,,0.00,642.0,WeatherDisplay:10.37,2013-04-02 20:00:00,
2013-04-02 16:05:00,45.2,13.1,30.04,West,276,14.5,19.5,27,0.00,FEW,,0.00,631.0,WeatherDisplay:10.37,2013-04-02 20:05:00,
2013-04-02 16:11:00,45.7,13.6,30.04,WNW,294,28.6,28.6,27,0.00,FEW,,0.00,610.0,WeatherDisplay:10.37,2013-04-02 20:11:00,
2013-04-02 16:16:00,45.4,13.3,30.04,NW,325,21.7,22.5,27,0.00,FEW,,0.00,599.0,WeatherDisplay:10.37,2013-04-02 20:16:00,
2013-04-02 16:22:00,44.9,12.0,30.04,NW,321,16.2,16.5,26,0.00,FEW,,0.00,584.0,WeatherDisplay:10.37,2013-04-02 20:22:00,
2013-04-02 16:27:00,45.4,14.1,30.04,WNW,283,18.9,19.6,28,0.00,FEW,,0.00,575.0,WeatherDisplay:10.37,2013-04-02 20:27:00,
2013-04-02 16:32:00,45.5,14.2,30.04,North,350,21.8,23.0,28,0.00,FEW,,0.00,552.0,WeatherDisplay:10.37,2013-04-02 20:32:00,
2013-04-02 16:37:00,45.4,14.1,30.05,WNW,289,16.5,16.5,28,0.00,FEW,,0.00,540.0,WeatherDisplay:10.37,2013-04-02 20:37:00,
2013-04-02 16:42:00,45.2,12.3,30.05,WNW,292,11.2,18.4,26,0.00,FEW,,0.00,522.0,WeatherDisplay:10.37,2013-04-02 20:42:00,
2013-04-02 16:47:00,45.7,13.6,30.05,NW,315,18.7,20.7,27,0.00,FEW,,0.00,504.0,WeatherDisplay:10.37,2013-04-02 20:47:00,
2013-04-02 16:52:00,45.5,14.2,30.05,NNW,327,13.0,18.0,28,0.00,FEW,,0.00,492.0,WeatherDisplay:10.37,2013-04-02 20:52:00,
2013-04-02 16:57:00,46.0,14.7,30.05,NW,322,10.8,15.0,28,0.00,FEW,,0.00,483.0,WeatherDisplay:10.37,2013-04-02 20:57:00,
2013-04-02 17:02:00,45.8,12.8,30.05,NW,309,16.1,18.0,26,0.00,CLR,,0.00,461.0,WeatherDisplay:10.37,2013-04-02 21:02:00,
2013-04-02 17:07:00,45.5,11.7,30.05,West,269,21.5,22.5,25,0.00,CLR,,0.00,450.0,WeatherDisplay:10.37,2013-04-02 21:07:00,
2013-04-02 17:12:00,45.1,13.1,30.05,NW,305,10.0,16.1,27,0.00,CLR,,0.00,443.0,WeatherDisplay:10.37,2013-04-02 21:12:00,
2013-04-02 17:17:00,45.4,12.5,30.05,WNW,290,20.0,20.0,26,0.00,CLR,,0.00,417.0,WeatherDisplay:10.37,2013-04-02 21:17:00,
2013-04-02 17:22:00,45.4,11.6,30.05,West,279,15.2,16.1,25,0.00,CLR,,0.00,396.0,WeatherDisplay:10.37,2013-04-02 21:22:00,
2013-04-02 17:27:00,45.5,12.5,30.05,NW,320,20.3,20.3,26,0.00,CLR,,0.00,373.0,WeatherDisplay:10.37,2013-04-02 21:27:00,
2013-04-02 17:32:00,45.4,12.5,30.05,WNW,296,17.7,18.4,26,0.00,CLR,,0.00,357.0,WeatherDisplay:10.37,2013-04-02 21:32:00,
2013-04-02 17:37:00,45.2,12.3,30.05,WNW,300,23.0,23.0,26,0.00,CLR,,0.00,336.0,WeatherDisplay:10.37,2013-04-02 21:37:00,
2013-04-02 17:43:00,45.1,12.2,30.06,NNW,336,18.1,21.0,26,0.00,CLR,,0.00,316.0,WeatherDisplay:10.37,2013-04-02 21:43:00,
2013-04-02 17:48:00,45.1,12.2,30.06,NW,319,18.6,22.5,26,0.00,CLR,,0.00,301.0,WeatherDisplay:10.37,2013-04-02 21:48:00,
2013-04-02 17:53:00,44.9,12.0,30.05,WNW,289,13.3,15.0,26,0.00,CLR,,0.00,281.0,WeatherDisplay:10.37,2013-04-02 21:53:00,
2013-04-02 17:58:00,45.1,11.3,30.06,NNW,335,24.0,27.0,25,0.00,CLR,,0.00,262.0,WeatherDisplay:10.37,2013-04-02 21:58:00,
2013-04-02 18:03:00,44.8,10.1,30.06,West,264,18.1,20.7,24,0.00,CLR,,0.00,246.0,WeatherDisplay:10.37,2013-04-02 22:03:00,
2013-04-02 18:08:00,44.8,11.1,30.07,WNW,292,15.5,19.6,25,0.00,CLR,,0.00,225.0,WeatherDisplay:10.37,2013-04-02 22:08:00,
2013-04-02 18:13:00,44.8,11.9,30.07,NW,313,19.1,24.0,26,0.00,CLR,,0.00,207.0,WeatherDisplay:10.37,2013-04-02 22:13:00,
2013-04-02 18:18:00,44.5,10.8,30.07,WNW,302,16.6,19.6,25,0.00,CLR,,0.00,190.0,WeatherDisplay:10.37,2013-04-02 22:18:00,
2013-04-02 18:24:00,44.5,10.8,30.07,NW,310,15.5,16.1,25,0.00,CLR,,0.00,171.0,WeatherDisplay:10.37,2013-04-02 22:24:00,
2013-04-02 18:29:00,44.6,11.8,30.07,WNW,288,15.1,16.5,26,0.00,CLR,,0.00,153.0,WeatherDisplay:10.37,2013-04-02 22:29:00,
2013-04-02 18:34:00,44.5,12.5,30.07,NNW,328,12.0,12.0,27,0.00,CLR,,0.00,128.0,WeatherDisplay:10.37,2013-04-02 22:34:00,
2013-04-02 18:39:00,44.3,12.4,30.08,NW,325,13.9,15.0,27,0.00,CLR,,0.00,109.0,WeatherDisplay:10.37,2013-04-02 22:39:00,
2013-04-02 18:44:00,44.1,10.5,30.07,West,281,18.4,18.4,25,0.00,CLR,,0.00,93.0,WeatherDisplay:10.37,2013-04-02 22:44:00,
2013-04-02 18:49:00,43.9,11.2,30.08,NW,315,4.7,9.2,26,0.00,CLR,,0.00,76.0,WeatherDisplay:10.37,2013-04-02 22:49:00,
2013-04-02 18:54:00,43.6,10.9,30.08,WNW,303,19.4,19.4,26,0.00,CLR,,0.00,58.0,WeatherDisplay:10.37,2013-04-02 22:54:00,
2013-04-02 18:59:00,43.3,10.7,30.08,NW,316,12.7,15.0,26,0.00,CLR,,0.00,46.0,WeatherDisplay:10.37,2013-04-02 22:59:00,
2013-04-02 19:04:00,43.2,12.2,30.08,NW,323,6.0,8.1,28,0.00,FEW,,0.00,35.0,WeatherDisplay:10.37,2013-04-02 23:04:00,
2013-04-02 19:09:00,42.9,12.0,30.08,NW,310,5.9,6.0,28,0.00,FEW,,0.00,25.0,WeatherDisplay:10.37,2013-04-02 23:09:00,
2013-04-02 19:14:00,42.6,11.7,30.08,WNW,298,1.4,3.5,28,0.00,FEW,,0.00,19.0,WeatherDisplay:10.37,2013-04-02 23:14:00,
2013-04-02 19:19:00,42.3,11.5,30.08,NW,317,4.8,5.8,28,0.00,FEW,,0.00,16.0,WeatherDisplay:10.37,2013-04-02 23:19:00,
2013-04-02 19:24:00,41.9,11.1,30.08,NW,307,7.2,13.8,28,0.00,FEW,,0.00,12.0,WeatherDisplay:10.37,2013-04-02 23:24:00,
2013-04-02 19:29:00,41.6,10.9,30.08,WNW,292,1.0,4.6,28,0.00,FEW,,0.00,9.0,WeatherDisplay:10.37,2013-04-02 23:29:00,
2013-04-02 19:34:00,41.2,10.5,30.08,WNW,292,0.0,0.0,28,0.00,FEW,,0.00,5.0,WeatherDisplay:10.37,2013-04-02 23:34:00,
2013-04-02 19:39:00,40.8,11.7,30.09,WNW,292,0.3,1.2,30,0.00,FEW,,0.00,0.0,WeatherDisplay:10.37,2013-04-02 23:39:00,
2013-04-02 19:44:00,40.3,11.3,30.09,NW,314,0.0,0.0,30,0.00,FEW,,0.00,0.0,WeatherDisplay:10.37,2013-04-02 23:44:00,
2013-04-02 19:49:00,39.9,11.7,30.09,NW,314,0.2,1.5,31,0.00,FEW,,0.00,0.0,WeatherDisplay:10.37,2013-04-02 23:49:00,
2013-04-02 19:54:00,39.5,11.3,30.09,NW,315,0.2,3.0,31,0.00,FEW,,0.00,0.0,WeatherDisplay:10.37,2013-04-02 23:54:00,
2013-04-02 19:59:00,39.3,11.9,30.10,NW,317,0.0,0.0,32,0.00,FEW,,0.00,0.0,WeatherDisplay:10.37,2013-04-02 23:59:00,
2013-04-02 20:04:00,39.1,12.4,30.09,NW,317,0.0,0.0,33,0.00,FEW,,0.00,0.0,WeatherDisplay:10.37,2013-04-03 00:04:00,
2013-04-02 20:09:00,38.5,12.5,30.10,NW,317,0.6,4.5,34,0.00,FEW,,0.00,0.0,WeatherDisplay:10.37,2013-04-03 00:09:00,
2013-04-02 20:14:00,38.2,12.3,30.10,NW,317,1.2,3.0,34,0.00,FEW,,0.00,0.0,WeatherDisplay:10.37,2013-04-03 00:14:00,
2013-04-02 20:19:00,38.0,12.1,30.10,NW,317,1.0,3.5,34,0.00,FEW,,0.00,0.0,WeatherDisplay:10.37,2013-04-03 00:19:00,
2013-04-02 20:25:00,37.8,12.6,30.10,NW,317,0.0,0.0,35,0.00,FEW,,0.00,0.0,WeatherDisplay:10.37,2013-04-03 00:25:00,
2013-04-02 20:30:00,37.3,12.7,30.11,NW,317,0.0,0.0,36,0.00,FEW,,0.00,0.0,WeatherDisplay:10.37,2013-04-03 00:30:00,
2013-04-02 20:35:00,36.8,12.9,30.11,NW,317,0.0,0.0,37,0.00,FEW,,0.00,0.0,WeatherDisplay:10.37,2013-04-03 00:35:00,
2013-04-02 20:40:00,36.2,13.0,30.11,NW,317,0.0,0.0,38,0.00,FEW,,0.00,0.0,WeatherDisplay:10.37,2013-04-03 00:40:00,
2013-04-02 20:45:00,35.9,13.3,30.11,NW,317,0.0,0.0,39,0.00,FEW,,0.00,0.0,WeatherDisplay:10.37,2013-04-03 00:45:00,
2013-04-02 20:50:00,35.3,13.9,30.11,NW,317,0.0,0.0,41,0.00,FEW,,0.00,0.0,WeatherDisplay:10.37,2013-04-03 00:50:00,
2013-04-02 20:55:00,34.4,14.2,30.11,NW,317,0.0,0.0,43,0.00,FEW,,0.00,0.0,WeatherDisplay:10.37,2013-04-03 00:55:00,
2013-04-02 21:00:00,33.5,13.9,30.12,NW,317,0.0,0.0,44,0.00,FEW,,0.00,0.0,WeatherDisplay:10.37,2013-04-03 01:00:00,
2013-04-02 21:06:00,32.9,14.8,30.12,NW,317,0.0,1.5,47,0.00,CLR,,0.00,0.0,WeatherDisplay:10.37,2013-04-03 01:06:00,
2013-04-02 21:12:00,32.8,14.3,30.13,NW,317,0.1,1.5,46,0.00,CLR,,0.00,0.0,WeatherDisplay:10.37,2013-04-03 01:12:00,
2013-04-02 21:17:00,31.8,14.8,30.13,NW,317,0.0,0.0,49,0.00,CLR,,0.00,0.0,WeatherDisplay:10.37,2013-04-03 01:17:00,
2013-04-02 21:22:00,31.3,14.8,30.13,NW,317,0.0,0.0,50,0.00,CLR,,0.00,0.0,WeatherDisplay:10.37,2013-04-03 01:22:00,
2013-04-02 21:27:00,31.0,14.5,30.13,NW,317,0.0,0.0,50,0.00,CLR,,0.00,0.0,WeatherDisplay:10.37,2013-04-03 01:27:00,
2013-04-02 21:32:00,30.6,15.5,30.13,NW,317,0.0,0.0,53,0.00,CLR,,0.00,0.0,WeatherDisplay:10.37,2013-04-03 01:32:00,
2013-04-02 21:37:00,30.3,15.2,30.14,NW,317,0.0,0.0,53,0.00,CLR,,0.00,0.0,WeatherDisplay:10.37,2013-04-03 01:37:00,
2013-04-02 21:42:00,29.8,15.2,30.14,NW,317,0.0,0.0,54,0.00,CLR,,0.00,0.0,WeatherDisplay:10.37,2013-04-03 01:42:00,
2013-04-02 21:47:00,29.4,15.6,30.14,NW,317,0.0,0.0,56,0.00,CLR,,0.00,0.0,WeatherDisplay:10.37,2013-04-03 01:47:00,
2013-04-02 21:52:00,29.3,15.5,30.14,NW,317,0.0,0.0,56,0.00,CLR,,0.00,0.0,WeatherDisplay:10.37,2013-04-03 01:52:00,
2013-04-02 21:57:00,29.1,15.7,30.14,NW,317,0.0,0.0,57,0.00,CLR,,0.00,0.0,WeatherDisplay:10.37,2013-04-03 01:57:00,
2013-04-02 22:02:00,29.1,15.7,30.14,NW,317,0.0,0.0,57,0.00,CLR,,0.00,0.0,WeatherDisplay:10.37,2013-04-03 02:02:00,
2013-04-02 22:07:00,29.0,15.7,30.15,NW,317,0.0,0.0,57,0.00,CLR,,0.00,0.0,WeatherDisplay:10.37,2013-04-03 02:07:00,
2013-04-02 22:12:00,28.5,15.6,30.15,NW,317,0.0,0.0,58,0.00,CLR,,0.00,0.0,WeatherDisplay:10.37,2013-04-03 02:12:00,
2013-04-02 22:17:00,28.1,15.6,30.15,NW,317,0.0,0.0,59,0.00,CLR,,0.00,0.0,WeatherDisplay:10.37,2013-04-03 02:17:00,
2013-04-02 22:22:00,27.9,15.8,30.15,NW,317,0.0,0.0,60,0.00,CLR,,0.00,0.0,WeatherDisplay:10.37,2013-04-03 02:22:00,
2013-04-02 22:28:00,27.9,16.2,30.15,NW,317,0.0,0.0,61,0.00,CLR,,0.00,0.0,WeatherDisplay:10.37,2013-04-03 02:28:00,
2013-04-02 22:33:00,27.9,15.8,30.15,NW,317,0.0,0.0,60,0.00,CLR,,0.00,0.0,WeatherDisplay:10.37,2013-04-03 02:33:00,
2013-04-02 22:38:00,27.8,16.1,30.15,NW,317,0.0,0.0,61,0.00,CLR,,0.00,0.0,WeatherDisplay:10.37,2013-04-03 02:38:00,
2013-04-02 22:43:00,27.5,16.2,30.15,NW,317,0.0,0.0,62,0.00,CLR,,0.00,0.0,WeatherDisplay:10.37,2013-04-03 02:43:00,
2013-04-02 22:48:00,27.2,15.9,30.15,NW,317,0.0,0.0,62,0.00,CLR,,0.00,0.0,WeatherDisplay:10.37,2013-04-03 02:48:00,
2013-04-02 22:53:00,27.0,16.1,30.15,NW,317,0.0,0.0,63,0.00,CLR,,0.00,0.0,WeatherDisplay:10.37,2013-04-03 02:53:00,
2013-04-02 22:58:00,26.9,16.0,30.15,NW,317,0.0,0.0,63,0.00,CLR,,0.00,0.0,WeatherDisplay:10.37,2013-04-03 02:58:00,
2013-04-02 23:03:00,26.7,15.8,30.15,NW,317,0.0,0.0,63,0.00,CLR,,0.00,0.0,WeatherDisplay:10.37,2013-04-03 03:03:00,
2013-04-02 23:08:00,26.6,16.1,30.15,NW,317,0.0,0.0,64,0.00,CLR,,0.00,0.0,WeatherDisplay:10.37,2013-04-03 03:08:00,
2013-04-02 23:13:00,26.4,16.2,30.15,NW,317,0.0,0.0,65,0.00,CLR,,0.00,0.0,WeatherDisplay:10.37,2013-04-03 03:13:00,
2013-04-02 23:18:00,26.1,15.9,30.15,NW,317,0.0,0.0,65,0.00,CLR,,0.00,0.0,WeatherDisplay:10.37,2013-04-03 03:18:00,
2013-04-02 23:23:00,26.1,16.3,30.15,NW,317,1.2,1.5,66,0.00,CLR,,0.00,0.0,WeatherDisplay:10.37,2013-04-03 03:23:00,
2013-04-02 23:28:00,26.1,16.3,30.15,NW,317,0.0,0.0,66,0.00,CLR,,0.00,0.0,WeatherDisplay:10.37,2013-04-03 03:28:00,
2013-04-02 23:34:00,26.0,16.5,30.15,NW,317,0.1,0.0,67,0.00,CLR,,0.00,0.0,WeatherDisplay:10.37,2013-04-03 03:34:00,
2013-04-02 23:39:00,25.7,16.3,30.15,NW,317,0.0,0.0,67,0.00,CLR,,0.00,0.0,WeatherDisplay:10.37,2013-04-03 03:39:00,
2013-04-02 23:44:00,26.0,16.5,30.15,NW,317,0.0,0.0,67,0.00,CLR,,0.00,0.0,WeatherDisplay:10.37,2013-04-03 03:44:00,
2013-04-02 23:49:00,25.7,15.9,30.15,NW,317,0.0,0.0,66,0.00,CLR,,0.00,0.0,WeatherDisplay:10.37,2013-04-03 03:49:00,
2013-04-02 23:54:00,25.4,16.0,30.15,NW,317,0.0,0.0,67,0.00,CLR,,0.00,0.0,WeatherDisplay:10.37,2013-04-03 03:54:00,
2013-04-02 23:59:00,25.1,15.7,30.16,NW,317,0.0,0.0,67,0.00,CLR,,0.00,0.0,WeatherDisplay:10.37,2013-04-03 03:59:00,